Regional Weather Roundup
Issued by NWS

Home | Current Version | Previous Version | Graphics & Text | Print | Product List | Glossary Off
Versions: 1 2 3 4 5 6 7 8 9 10 11 12 13 14 15 16 17 18 19 20 21 22 23 24 25 26 27 28 29 30 31 32 33 34 35 36 37 38 39 40 41 42 43 44 45 46 47 48 49 50

000
ASUS43 KDMX 210507
RWRIA

WEATHER ROUNDUP FOR IOWA
NATIONAL WEATHER SERVICE DES MOINES IA
1200 AM CDT SUN SEP 21 2014

NOTE: "FAIR" INDICATES FEW OR NO CLOUDS BELOW 12,000 FEET WITH NO
SIGNIFICANT WEATHER AND/OR OBSTRUCTIONS TO VISIBILITY.

* - THESE STATIONS ARE NOT NWS STATIONS...THUS NOT UNDER NWS
QUALITY CONTROL.  THEY ALSO DO NOT REPORT WEATHER SUCH
AS PRECIPITATION OR FOG.

IAZ001>003-012>014-020>022-031>034-043>046-210600-
   NORTHWEST IOWA

CITY           SKY/WX    TMP DP  RH WIND       PRES   REMARKS
CARROLL *      CLEAR     55  52  88 W6        30.03S
CHEROKEE *     CLEAR     57  54  88 W3        30.04R
DENISON *      CLEAR     59  54  82 CALM      30.04R
LE MARS *        N/A     54  52  94 CALM      30.06R
ORANGE CITY *  CLEAR     54  48  82 NW5       30.05R
SHELDON *      CLEAR     52  48  87 W7        30.02S
SIOUX CITY     CLEAR     58  52  80 W6        30.06R
SPENCER        CLEAR     54  49  83 W12       30.00S
STORM LAKE *   CLEAR     55  54  94 NW8       30.03R
$$

IAZ055>058-069>071-079>083-090>094-210600-
   SOUTHWEST IOWA

CITY           SKY/WX    TMP DP  RH WIND       PRES   REMARKS
ATLANTIC *     PTCLDY    61  52  72 CALM      30.05R
AUDUBON *      CLEAR     61  50  67 N6        30.06R
CLARINDA *     CLEAR     68  54  60 N12G17    30.05R
COUNCIL BLFS * CLEAR     64  57  77 N7        30.06R
CRESTON *      CLEAR     64  52  63 N14       30.03R
HARLAN  *      CLEAR     61  54  77 N3        30.09R
LAMONI         PTCLDY    68  55  63 N17G26    30.00R
RED OAK *      CLEAR     64  55  72 N9        30.05R
SHENANDOAH *   CLEAR     68  57  68 N12       30.05R
$$

IAZ047>049-059>061-072>074-084-210600-
   CENTRAL IOWA

CITY           SKY/WX    TMP DP  RH WIND       PRES   REMARKS
AMES           CLEAR     60  53  77 NW9       29.99R
ANKENY *       PTCLDY    63  54  72 N7G15     30.00R
CHARITON *     MOCLDY    66  48  52 N21G31    30.00R
DES MOINES     PTCLDY    66  51  58 N12G28    30.00R
GRINNELL*      PTCLDY    61  54  77 NW9       29.98R
KNOXVILLE *    PTCLDY    64  54  68 NW16G23   29.98R
MARSHALLTOWN   CLEAR     58  54  86 NW9       29.96R
PELLA *        CLEAR     63  54  72 N10       29.99R
PERRY *          N/A     59  52  77 NW6       30.02R
$$

IAZ004>006-015-016-023>025-035-036-210600-
   NORTH CENTRAL IOWA

CITY           SKY/WX    TMP DP  RH WIND       PRES   REMARKS
ALGONA *       CLEAR     57  54  88 W8        29.98S
CLARION *        N/A     54  54 100 W5        29.97S
ESTHERVILLE    CLEAR     55  52  89 W9        29.98S
FORT DODGE *   CLEAR     55  52  88 CALM      30.00S
MASON CITY     CLEAR     55  54  96 W10       29.95S
FOREST CITY *  CLEAR     55  55 100 CALM      29.95S
IOWA FALLS *     N/A     55  54  94 W6        29.97F
$$

IAZ007>011-017>019-026>030-037>042-050>054-066-210600-
   NORTHEAST IOWA

CITY           SKY/WX    TMP DP  RH WIND       PRES   REMARKS
CEDAR RAPIDS   CLEAR     61  57  87 NW18G26   29.90R
CHARLES CITY * CLEAR     55  54  94 W6        29.92S
CLINTON *      CLOUDY    64  57  77 NW8       29.85S
DECORAH *      CLEAR     55  54  94 W7        29.87F
DUBUQUE        MOCLDY    60  57  89 NW21G29   29.84R
MONTICELLO *   CLEAR     61  57  88 NW16G25   29.87R
OELWEIN *      CLEAR     57  54  88 NW12G21   29.92R
WATERLOO       CLEAR     57  53  86 NW9       29.92R
$$

IAZ064-065-067-068-078-210600-
   EAST CENTRAL IOWA

CITY           SKY/WX    TMP DP  RH WIND       PRES   REMARKS
DAVENPORT      MOCLDY    66  57  72 NW10      29.85R
IOWA CITY        N/A     65  58  78 NW16G31   29.90R
MT. PLEASANT * PTCLDY    72  61  68 NW18      29.89R
MUSCATINE *    CLEAR     68  59  73 NW14      29.88R
QUAD CITIES    CLEAR     69  59  70 NW9       29.84R
$$

IAZ062-063-075>077-085>089-095>099-210600-
   SOUTHEAST IOWA

CITY           SKY/WX    TMP DP  RH WIND       PRES   REMARKS
BURLINGTON     CLEAR     72  67  84 W7        29.85F
FAIRFIELD *    MOCLDY    68  57  68 NW16G23   29.93R
FORT MADISON * CLEAR     72  68  88 W6        29.87F
KEOKUK *       CLEAR     68  66  94 W7        29.87S
OSKALOOSA *    MOCLDY    64  55  72 N15G23    29.96R
CENTERVILLE *    N/A     68  59  73 N12G23    29.97R
OTTUMWA        MOCLDY    65  54  67 N20G36    29.95R
WASHINGTON *   PTCLDY    66  59  77 NW16G23   29.91R
$$

ABBREVIATIONS USED IN REMARKS
   TC - TEMPERATURES IN CELSIUS
  WCI - WIND CHILL INDEX
   HX - HEAT INDEX
  VSB - VISIBILITY
$$




USA.gov is the U.S. government's official web portal to all federal, state and local government web resources and services.